STARLINK-2491

Last updated on Sat May 08 2021 00:02:05 GMT+0000 (Coordinated Universal Time)

1 48148U 21027BJ 21127.58334491 .00055451 00000-0 39706-3 0 9995 2 48148 53.0472 191.7384 0002485 19.3467 287.4255 15.73184780 1772

Satellite not in orbit